| time (UTC) | temp C | wind direction | speed KPH | gust KPH | rain 1hr cm | rain 24hr cm | rain mn cm | humidity % | barometer mb |
| 20260507221517 | 7 | 285 | 11.3 | 20.9 | 0.00 | 0.00 | 0.00 | 63 | 1011.0 |
| 20260507220016 | 7 | 267 | 14.5 | 25.7 | 0.00 | 0.00 | 0.00 | 59 | 1011.0 |
| 20260507214516 | 7 | 273 | 17.7 | 25.7 | 0.00 | 0.00 | 0.00 | 57 | 1011.0 |
| 20260507213022 | 7 | 292 | 14.5 | 25.7 | 0.00 | 0.00 | 0.00 | 56 | 1010.9 |
| 20260507211515 | 8 | 271 | 8.0 | 27.4 | 0.00 | 0.00 | 0.00 | 52 | 1010.9 |
| 20260507210014 | 7 | 257 | 17.7 | 29.0 | 0.00 | 0.00 | 0.00 | 50 | 1010.8 |
| 20260507204513 | 8 | 271 | 22.5 | 32.2 | 0.00 | 0.00 | 0.00 | 52 | 1010.8 |
| 20260507203016 | 8 | 263 | 24.1 | 29.0 | 0.00 | 0.00 | 0.00 | 54 | 1010.9 |
| 20260507201509 | 8 | 271 | 12.9 | 20.9 | 0.00 | 0.00 | 0.00 | 55 | 1010.9 |
| 20260507200008 | 7 | 247 | 8.0 | 20.9 | 0.00 | 0.00 | 0.00 | 58 | 1010.9 |
| 20260507194510 | 7 | 265 | 12.9 | 20.9 | 0.00 | 0.00 | 0.00 | 59 | 1011.0 |
| 20260507193002 | 7 | 278 | 14.5 | 24.1 | 0.00 | 0.00 | 0.00 | 58 | 1011.2 |
| 20260507191600 | 7 | 268 | 17.7 | 24.1 | 0.00 | 0.00 | 0.00 | 59 | 1011.3 |
| 20260507184557 | 7 | 272 | 11.3 | 25.7 | 0.00 | 0.00 | 0.00 | 59 | 1011.5 |
| 20260507183057 | 7 | 284 | 17.7 | 25.7 | 0.00 | 0.00 | 0.00 | 59 | 1011.5 |
| 20260507181555 | 7 | 260 | 14.5 | 24.1 | 0.00 | 0.00 | 0.00 | 60 | 1011.7 |
| 20260507180054 | 7 | 262 | 17.7 | 25.7 | 0.00 | 0.00 | 0.00 | 58 | 1011.8 |
| 20260507174551 | 7 | 266 | 17.7 | 24.1 | 0.00 | 0.00 | 0.00 | 62 | 1011.9 |
| 20260507173123 | 7 | 278 | 17.7 | 24.1 | 0.00 | 0.00 | 0.00 | 61 | 1012.1 |
| 20260507171545 | 6 | 272 | 16.1 | 22.5 | 0.00 | 0.00 | 0.00 | 63 | 1012.2 |
| 20260507170047 | 6 | 260 | 14.5 | 24.1 | 0.00 | 0.00 | 0.00 | 64 | 1012.5 |
| 20260507164542 | 6 | 269 | 14.5 | 22.5 | 0.00 | 0.00 | 0.00 | 64 | 1012.6 |
| 20260507163041 | 6 | 271 | 16.1 | 25.7 | 0.00 | 0.00 | 0.00 | 64 | 1012.6 |
| 20260507161545 | 6 | 274 | 12.9 | 19.3 | 0.00 | 0.00 | 0.00 | 65 | 1012.7 |
| 20260507160038 | 6 | 264 | 12.9 | 20.9 | 0.00 | 0.00 | 0.00 | 66 | 1012.8 |
| 20260507154533 | 6 | 262 | 11.3 | 16.1 | 0.00 | 0.00 | 0.00 | 72 | 1012.9 |
| 20260507153033 | 6 | 273 | 11.3 | 17.7 | 0.00 | 0.00 | 0.00 | 72 | 1012.9 |
| 20260507151532 | 6 | 272 | 11.3 | 16.1 | 0.00 | 0.00 | 0.00 | 72 | 1012.9 |
| 20260507150037 | 5 | 261 | 11.3 | 16.1 | 0.00 | 0.00 | 0.00 | 71 | 1013.1 |
| 20260507144526 | 5 | 266 | 8.0 | 12.9 | 0.00 | 0.00 | 0.00 | 74 | 1013.1 |
| 20260507143025 | 5 | 276 | 4.8 | 11.3 | 0.00 | 0.00 | 0.00 | 76 | 1013.0 |
| 20260507141524 | 5 | 270 | 6.4 | 12.9 | 0.00 | 0.00 | 0.00 | 77 | 1013.1 |
| 20260507140020 | 4 | 263 | 6.4 | 11.3 | 0.00 | 0.00 | 0.00 | 78 | 1013.1 |
| 20260507134519 | 4 | 248 | 6.4 | 12.9 | 0.00 | 0.00 | 0.00 | 79 | 1013.1 |
| 20260507133020 | 3 | 263 | 3.2 | 9.7 | 0.00 | 0.00 | 0.00 | 81 | 1013.0 |
| 20260507131516 | 3 | 259 | 4.8 | 8.0 | 0.00 | 0.00 | 0.00 | 83 | 1013.0 |
| 20260507130015 | 3 | 274 | 1.6 | 8.0 | 0.00 | 0.00 | 0.00 | 83 | 1013.0 |
| 20260507124514 | 3 | 255 | 6.4 | 11.3 | 0.00 | 0.00 | 0.00 | 83 | 1012.9 |
| 20260507123014 | 2 | 252 | 4.8 | 9.7 | 0.00 | 0.00 | 0.00 | 85 | 1012.8 |
| 20260507121512 | 2 | 234 | 4.8 | 9.7 | 0.00 | 0.00 | 0.00 | 84 | 1013.0 |
| 20260507120011 | 1 | 248 | 0.0 | 4.8 | 0.00 | 0.00 | 0.00 | 86 | 1012.9 |
| 20260507114510 | 1 | 242 | 0.0 | 0.0 | 0.00 | 0.00 | 0.00 | 91 | 1012.7 |
| 20260507113012 | 0 | 115 | 0.0 | 0.0 | 0.00 | 0.00 | 0.00 | 92 | 1012.6 |
| 20260507111510 | -1 | 115 | 0.0 | 0.0 | 0.00 | 0.00 | 0.00 | 92 | 1012.6 |
| 20260507110009 | -1 | 115 | 0.0 | 0.0 | 0.00 | 0.00 | 0.00 | 92 | 1012.5 |
| 20260507104508 | -2 | 115 | 0.0 | 0.0 | 0.00 | 0.00 | 0.00 | 91 | 1012.4 |
| 20260507103007 | -1 | 115 | 0.0 | 0.0 | 0.00 | 0.00 | 0.00 | 91 | 1012.4 |
| 20260507101507 | -1 | 115 | 0.0 | 0.0 | 0.00 | 0.00 | 0.00 | 91 | 1012.4 |
| 20260507100006 | -1 | 115 | 0.0 | 0.0 | 0.00 | 0.00 | 0.00 | 90 | 1012.4 |
| 20260507094504 | -1 | 115 | 0.0 | 0.0 | 0.00 | 0.00 | 0.00 | 90 | 1012.4 |
| 20260507093005 | -1 | 116 | 0.0 | 0.0 | 0.00 | 0.00 | 0.00 | 91 | 1012.6 |
| 20260507091505 | -1 | 116 | 0.0 | 0.0 | 0.00 | 0.00 | 0.00 | 91 | 1012.7 |
| 20260507090007 | -1 | 101 | 0.0 | 0.0 | 0.00 | 0.00 | 0.00 | 91 | 1012.7 |
| 20260507084602 | -1 | 101 | 0.0 | 0.0 | 0.00 | 0.00 | 0.00 | 92 | 1012.7 |
| 20260507083100 | -1 | 102 | 0.0 | 0.0 | 0.00 | 0.00 | 0.00 | 91 | 1012.7 |
| 20260507081600 | -1 | 101 | 0.0 | 0.0 | 0.00 | 0.00 | 0.00 | 91 | 1012.8 |
| 20260507080059 | -2 | 101 | 0.0 | 0.0 | 0.00 | 0.00 | 0.00 | 91 | 1012.8 |
| 20260507074558 | -2 | 101 | 0.0 | 0.0 | 0.00 | 0.00 | 0.00 | 90 | 1012.9 |
| 20260507073104 | -1 | 101 | 0.0 | 0.0 | 0.00 | 0.00 | 0.00 | 90 | 1013.0 |
| 20260507071554 | -1 | 102 | 0.0 | 0.0 | 0.00 | 0.00 | 0.00 | 90 | 1013.1 |
| 20260507070058 | -1 | 102 | 0.0 | 0.0 | 0.00 | 0.00 | 0.00 | 89 | 1013.1 |
| 20260507064554 | -1 | 102 | 0.0 | 0.0 | 0.00 | 0.00 | 0.00 | 90 | 1013.4 |
| 20260507063049 | -1 | 102 | 0.0 | 0.0 | 0.00 | 0.00 | 0.00 | 89 | 1013.4 |
| 20260507061548 | -1 | 102 | 0.0 | 0.0 | 0.00 | 0.00 | 0.00 | 88 | 1013.4 |
| 20260507060048 | -1 | 101 | 0.0 | 0.0 | 0.00 | 0.00 | 0.00 | 87 | 1013.4 |
| 20260507054543 | 0 | 101 | 0.0 | 0.0 | 0.00 | 0.00 | 0.00 | 87 | 1013.5 |
| 20260507053041 | 0 | 102 | 0.0 | 0.0 | 0.00 | 0.00 | 0.00 | 84 | 1013.5 |
| 20260507051536 | 0 | 101 | 0.0 | 0.0 | 0.00 | 0.00 | 0.00 | 80 | 1013.6 |
| 20260507050033 | 2 | 252 | 0.0 | 4.8 | 0.00 | 0.00 | 0.00 | 75 | 1013.6 |
| 20260507044528 | 3 | 253 | 0.0 | 4.8 | 0.00 | 0.00 | 0.00 | 71 | 1013.7 |
| 20260507043026 | 3 | 275 | 3.2 | 6.4 | 0.00 | 0.00 | 0.00 | 72 | 1013.8 |
| 20260507041524 | 3 | 259 | 0.0 | 3.2 | 0.00 | 0.00 | 0.00 | 73 | 1013.9 |
| 20260507040021 | 3 | 272 | 3.2 | 8.0 | 0.00 | 0.00 | 0.00 | 72 | 1013.9 |
| 20260507034522 | 3 | 276 | 3.2 | 8.0 | 0.00 | 0.00 | 0.00 | 74 | 1013.9 |
| 20260507033028 | 3 | 257 | 3.2 | 6.4 | 0.00 | 0.00 | 0.00 | 71 | 1013.8 |
| 20260507031524 | 4 | 254 | 1.6 | 6.4 | 0.00 | 0.00 | 0.00 | 69 | 1013.9 |
| 20260507030019 | 4 | 262 | 1.6 | 8.0 | 0.00 | 0.00 | 0.00 | 67 | 1013.7 |
| 20260507024516 | 4 | 264 | 1.6 | 6.4 | 0.00 | 0.00 | 0.00 | 66 | 1013.8 |
| 20260507023016 | 4 | 244 | 0.0 | 6.4 | 0.00 | 0.00 | 0.00 | 66 | 1013.8 |
| 20260507021515 | 4 | 250 | 3.2 | 8.0 | 0.00 | 0.00 | 0.00 | 61 | 1013.7 |
| 20260507020017 | 4 | 267 | 3.2 | 6.4 | 0.00 | 0.00 | 0.00 | 62 | 1013.7 |
| 20260507014513 | 5 | 264 | 4.8 | 6.4 | 0.00 | 0.00 | 0.00 | 64 | 1013.7 |
| 20260507013011 | 5 | 275 | 3.2 | 6.4 | 0.00 | 0.00 | 0.00 | 63 | 1013.5 |
| 20260507011524 | 5 | 260 | 4.8 | 9.7 | 0.00 | 0.00 | 0.00 | 62 | 1013.4 |
| 20260507010010 | 5 | 263 | 0.0 | 4.8 | 0.00 | 0.00 | 0.00 | 62 | 1013.3 |
| 20260507004508 | 5 | 275 | 0.0 | 8.0 | 0.00 | 0.00 | 0.00 | 63 | 1013.4 |
| 20260507003008 | 5 | 271 | 4.8 | 12.9 | 0.00 | 0.00 | 0.00 | 60 | 1013.2 |
| 20260507001509 | 5 | 256 | 0.0 | 14.5 | 0.00 | 0.00 | 0.00 | 61 | 1013.2 |
| 20260507000007 | 5 | 254 | 3.2 | 12.9 | 0.00 | 0.00 | 0.00 | 64 | 1013.2 |
| 20260506234506 | 5 | 248 | 3.2 | 12.9 | 0.00 | 0.00 | 0.00 | 65 | 1013.2 |
| 20260506233005 | 5 | 278 | 9.7 | 16.1 | 0.00 | 0.00 | 0.00 | 64 | 1013.2 |
| 20260506231505 | 5 | 268 | 12.9 | 17.7 | 0.00 | 0.00 | 0.00 | 61 | 1013.2 |
| 20260506230007 | 5 | 272 | 11.3 | 17.7 | 0.00 | 0.00 | 0.00 | 64 | 1013.2 |
| 20260506224503 | 5 | 276 | 11.3 | 19.3 | 0.00 | 0.00 | 0.00 | 59 | 1013.2 |
| 20260506223003 | 5 | 266 | 9.7 | 17.7 | 0.00 | 0.00 | 0.00 | 65 | 1013.2 |